User: anonymous   Login
Location: Unspecified
(0.0000°N, 0.0000°E)
Time: 06:18:10
(UTC+00:00)
Language:

PRISM - Orbit

View from above orbital plane
View from above orbital plane
View from above satellite
View from above satellite

Ground track
Ground track

The orbit data is extracted from the following two-line orbital elements,

1 33493U 09002B   18175.72501477  .00000074  00000-0  12242-4 0  9994
2 33493  98.1292  78.1050 0014549 295.1154  64.8556 14.96236121511473
Epoch (UTC): 24 June 2018 17:24:01
Eccentricity: 0.0014549
inclination: 98.1292°
perigee height: 568 km
apogee height: 588 km
right ascension of ascending node: 78.1050°
argument of perigee: 295.1154°
revolutions per day: 14.96236121
mean anomaly at epoch: 64.8556°
orbit number at epoch: 51147

The dashed part of the orbit path shows where the satellite is in the earth's shadow,  

DLR